Regional Weather Roundup
Issued by NWS

Home | Current Version | Previous Version | Text Only | Print | Product List | Glossary Off
Versions: 1 2 3 4 5 6 7 8 9 10 11 12 13 14 15 16 17 18 19 20 21 22 23 24 25 26 27 28 29 30 31 32 33 34 35 36 37 38 39 40 41 42 43 44 45 46 47 48 49 50

000
ASUS43 KDMX 221406
RWRIA

WEATHER ROUNDUP FOR IOWA
NATIONAL WEATHER SERVICE DES MOINES IA
900 AM CDT WED MAR 22 2017

NOTE: "FAIR" INDICATES FEW OR NO CLOUDS BELOW 12,000 FEET WITH NO
SIGNIFICANT WEATHER AND/OR OBSTRUCTIONS TO VISIBILITY.

* - THESE STATIONS ARE NOT NWS STATIONS...THUS NOT UNDER NWS
QUALITY CONTROL.  THEY ALSO DO NOT REPORT WEATHER SUCH
AS PRECIPITATION OR FOG.

IAZ001>003-012>014-020>022-031>034-043>046-221500-
   NORTHWEST IOWA

CITY           SKY/WX    TMP DP  RH WIND       PRES   REMARKS
CARROLL *      CLOUDY    30  19  64 SE16      30.45F WCI  19
CHEROKEE *     CLOUDY    29  17  60 SE15      30.44S WCI  18
DENISON *      CLOUDY    30  18  59 SE15      30.41F WCI  19
LE MARS *      CLOUDY    30  16  55 SE14G20   30.44R WCI  20
ORANGE CITY *  CLOUDY    28  18  64 SE7       30.42R WCI  21
SHELDON *      CLOUDY    28  21  74 SE14      30.42R WCI  17
SIOUX CITY     CLOUDY    31  19  61 SE10      30.43S WCI  22
SPENCER        CLOUDY    27  16  63 SE15      30.45R WCI  15
STORM LAKE *   CLOUDY    27  18  69 SE17G23   30.43S WCI  14
$$

IAZ055>058-069>071-079>083-090>094-221500-
   SOUTHWEST IOWA

CITY           SKY/WX    TMP DP  RH WIND       PRES   REMARKS
ATLANTIC *     CLOUDY    32  19  59 E10G18    30.44S WCI  24
AUDUBON *      CLOUDY    30  19  64 SE13      30.45S WCI  20
CLARINDA *     CLOUDY    34  23  64 E10       30.45F WCI  26
COUNCIL BLFS * CLOUDY    32  21  64 E12       30.42S WCI  23
CRESTON *      CLOUDY    30  21  69 E15G22    30.44F WCI  19
HARLAN  *      CLOUDY    32  19  59 SE10G16   30.46F WCI  24
LAMONI         CLOUDY    32  22  66 E13G20    30.43F WCI  22
RED OAK *      MIX PCPN  34  21  60 E12       30.43F WCI  25
SHENANDOAH *   CLOUDY    34  23  64 E9        30.43S WCI  26
$$

IAZ047>049-059>061-072>074-084-221500-
   CENTRAL IOWA

CITY           SKY/WX    TMP DP  RH WIND       PRES   REMARKS
AMES           PTSUNNY   30  21  69 E13       30.50R WCI  20
ANKENY *       CLOUDY    30  23  74 SE10G21   30.51R WCI  21
BOONE *        MOSUNNY   30  19  64 SE21      30.46S WCI  17
CHARITON *     CLOUDY    32  25  74 E16       30.46F WCI  21
DES MOINES     CLOUDY    32  22  66 E12       30.49S WCI  23
GRINNELL*      MOSUNNY   29  23  75 E12       30.52S WCI  20
MARSHALLTOWN   MOSUNNY   28  17  63 E20       30.50S WCI  15
NEWTON *       MOSUNNY   30  23  74 E10G18    30.49S WCI  21
PELLA *        MOSUNNY   31  24  73 E10G20    30.51S WCI  22
PERRY *          N/A     30  19  63 SE16      30.47F WCI  19
$$

IAZ004>006-015-016-023>025-035-036-221500-
   NORTH CENTRAL IOWA

CITY           SKY/WX    TMP DP  RH WIND       PRES   REMARKS
ALGONA *       CLOUDY    28  18  64 SE20      30.47R WCI  15
CLARION *      SUNNY     28  19  69 SE15      30.49R WCI  17
ESTHERVILLE    CLOUDY    26  18  71 SE16      30.46R WCI  14
FORT DODGE *   PTSUNNY   28  18  64 SE13      30.49R WCI  18
MASON CITY     SUNNY     25  15  66 SE17      30.51R WCI  12
FOREST CITY *    N/A     28  18  64 SE14      30.50R WCI  17
WEBSTER CITY * SUNNY     28  18  64 SE22      30.46S WCI  15
IOWA FALLS *     N/A     29  18  63 E18       30.51R WCI  16
$$

IAZ007>011-017>019-026>030-037>042-050>054-066-221500-
   NORTHEAST IOWA

CITY           SKY/WX    TMP DP  RH WIND       PRES   REMARKS
CEDAR RAPIDS   MOSUNNY   28  18  66 E16       30.52R WCI  16
CHARLES CITY * SUNNY     27  12  54 E16       30.52F WCI  14
CLINTON *      MOSUNNY   28  17  63 E14       30.57R WCI  17
DECORAH *      SUNNY     25   9  50 E12G18    30.54R WCI  14
DUBUQUE        SUNNY     25  12  58 E13       30.55R WCI  14
MONTICELLO *   MOSUNNY   28  14  54 E13       30.56R WCI  18
OELWEIN *      SUNNY     27  16  63 E15       30.53F WCI  15
WATERLOO       SUNNY     27  15  61 E18       30.53S WCI  14
$$

IAZ064-065-067-068-078-221500-
   EAST CENTRAL IOWA

CITY           SKY/WX    TMP DP  RH WIND       PRES   REMARKS
DAVENPORT      CLOUDY    30  17  58 E13       30.56R WCI  20
IOWA CITY      CLOUDY    32  20  61 E12       30.56R WCI  23
MUSCATINE *    CLOUDY    32  19  59 E12G20    30.56R WCI  23
QUAD CITIES    MOSUNNY   31  17  56 E17       30.56R WCI  19
$$

IAZ062-063-075>077-085>089-095>099-221500-
   SOUTHEAST IOWA

CITY           SKY/WX    TMP DP  RH WIND       PRES   REMARKS
BURLINGTON     SUNNY     32  25  75 NE10      30.52R WCI  24
FAIRFIELD *    MOSUNNY   32  23  69 E18       30.51S WCI  20
FORT MADISON * SUNNY     34  28  80 E10G16    30.53R WCI  26
KEOKUK *       CLOUDY    32  27  80 E12       30.52R WCI  23
OSKALOOSA *      N/A     31  24  75 E17       30.51S WCI  19
CENTERVILLE *    N/A     32  27  80 E15G22    30.49S WCI  22
OTTUMWA        CLOUDY    31  24  75 E16       30.50R WCI  20
WASHINGTON *   MOSUNNY   32  21  64 E18       30.54R WCI  20
$$

ABBREVIATIONS USED IN REMARKS
   TC - TEMPERATURES IN CELSIUS
  WCI - WIND CHILL INDEX
   HX - HEAT INDEX
  VSB - VISIBILITY
$$





USA.gov is the U.S. government's official web portal to all federal, state and local government web resources and services.